Flag for Germany Weather past 2 weeks in Friedrichshafen, Baden-Württemberg, Germany

Now
34 °F

Mostly cloudy.


Feels Like: 34 °F
Forecast: 28 / 35 °F
Wind: 1 mph from North

Location: Friedrichshafen Airport

Current Time: Jan 25, 2015 at 11:51:27 AM

Latest Report: Jan 25, 2015 at 11:20 AM


Visibility: N/A

Pressure: 30.39 "Hg

Humidity: 70%

Dew point: 25 °F

Location of FriedrichshafenLocation

Historic Weather in Friedrichshafen — Graph

°F

Friedrichshafen temperature yesterday

Maximum temperature yesterday: 36 °F (at 11:50 AM)
Minimum temperature yesterday: 32 °F (at 1:20 AM)
Average temperature yesterday: 33 °F

Past Weeks' High & Low Weather Summary

 TemperatureHumidityPressure
High59 °F (Jan 10, 11:50 AM)93% (Jan 13, 12:50 AM)30.42 "Hg (Jan 13, 12:50 AM)
Low23 °F (Jan 13, 5:50 AM)40% (Jan 14, 1:50 AM)29.65 "Hg (Jan 16, 3:50 PM)
Average36 °F79%30.01 "Hg
* Reported Jan 10 10:20 AM — Jan 25 10:50 AM, Friedrichshafen, Weather by CustomWeather, © 2014

Note: Actual official high and low records may vary slightly from our data, if they occured in-between our weather recording intervals... More about our weather records

Advertising

Friedrichshafen weather history for previous 24 hours

 ConditionsComfort  
Time TempWeatherWind HumidityBarometerVisibility
10:50 AM
Jan 25
34 °FPartly sunny.1 mph75%30.39 "HgN/A
10:20 AM32 °FPartly sunny.No wind93%30.39 "HgN/A
9:50 AM28 °FPartly sunny.2 mph93%30.36 "HgN/A
9:20 AM28 °FBroken clouds.2 mph93%30.36 "HgN/A
8:50 AM28 °FBroken clouds.No wind93%30.36 "Hg4 mi
8:20 AM30 °FMostly cloudy.No wind86%30.36 "Hg4 mi
7:50 AM30 °FIce fog.No wind86%30.33 "Hg2 mi
7:20 AM30 °FIce fog.No wind86%30.33 "Hg2 mi
6:50 AM30 °FLight snow. Ice fog.1 mph93%30.30 "Hg3 mi
6:20 AM30 °FLight freezing rain. Mostly cloudy.1 mph93%30.30 "Hg3 mi
5:50 AM30 °FSleet. Mostly cloudy.3 mph93%30.30 "Hg2 mi
5:20 AM30 °FChilly.3 mph93%30.27 "Hg1 mi
4:50 AM30 °FChilly.5 mph93%30.27 "Hg1 mi
4:20 AM32 °FChilly.5 mph87%30.27 "Hg1 mi
3:50 AM30 °FChilly.5 mph93%30.27 "Hg1 mi
3:20 AM32 °FChilly.3 mph87%30.27 "Hg1 mi
2:50 AM32 °FChilly.5 mph87%30.24 "Hg1 mi
2:20 AM32 °FChilly.5 mph87%30.24 "Hg1 mi
1:50 AM32 °FSleet. Overcast.5 mph87%30.24 "Hg6 mi
1:20 AM32 °FChilly.2 mph87%30.24 "Hg2 mi
12:50 AM32 °FChilly.3 mph87%30.24 "Hg5 mi
12:20 AM32 °FLight rain. Mostly cloudy.5 mph87%30.24 "HgN/A
11:50 PM
Jan 24
32 °FMostly cloudy.6 mph87%30.21 "HgN/A
11:20 PM32 °FMostly cloudy.5 mph87%30.21 "HgN/A
10:50 PM32 °FLight rain. Mostly cloudy.3 mph87%30.21 "HgN/A
10:20 PM32 °FMostly cloudy.6 mph80%30.21 "HgN/A
9:50 PM32 °FMostly cloudy.6 mph87%30.21 "HgN/A
9:20 PM34 °FMostly cloudy.5 mph81%30.18 "HgN/A
8:50 PM34 °FPassing clouds.9 mph75%30.18 "HgN/A
8:20 PM34 °FOvercast.8 mph75%30.18 "HgN/A
7:50 PM34 °FOvercast.3 mph75%30.15 "HgN/A
7:20 PM36 °FOvercast.2 mph65%30.15 "HgN/A
6:50 PM36 °FOvercast.6 mph70%30.15 "HgN/A
6:20 PM36 °FMostly cloudy.6 mph70%30.12 "HgN/A
5:50 PM36 °FMostly cloudy.7 mph70%30.12 "HgN/A
5:20 PM36 °FPartly cloudy.2 mph70%30.12 "HgN/A
4:50 PM36 °FCloudy.1 mph70%30.09 "HgN/A
4:20 PM36 °FMostly cloudy.3 mph70%30.09 "HgN/A
3:50 PM36 °FPartly sunny.6 mph70%30.09 "HgN/A
3:20 PM36 °FMostly cloudy.8 mph70%30.09 "HgN/A
2:50 PM36 °FPartly sunny.6 mph75%30.09 "HgN/A
2:20 PM36 °FCloudy.5 mph75%30.09 "HgN/A
1:50 PM36 °FCloudy.5 mph75%30.09 "HgN/A
1:20 PM34 °FCloudy.8 mph81%30.09 "HgN/A
12:50 PM34 °FMostly cloudy.8 mph81%30.09 "HgN/A
12:20 PM34 °FMore clouds than sun.8 mph81%30.12 "Hg5 mi
11:50 AM36 °FCloudy.8 mph75%30.12 "HgN/A
11:20 AM34 °FOvercast.7 mph81%30.12 "HgN/A
Weather by CustomWeather, © 2014

See weather overviewHow to use our weather pages